BEIJING 1 1 28890U 05043A 26174.98746976 .00000220 00000+0 51965-4 0 9998 2 28890 98.2920 308.2385 0013288 260.2314 99.7387 14.63535440101648 HUANJING 1A (HJ-1A) 1 33320U 08041A 26174.97648501 .00000930 00000+0 11748-3 0 9999 2 33320 97.6687 160.5521 0020365 113.7740 246.5613 14.83998359959419 HUANJING 1B (HJ-1B) 1 33321U 08041B 26174.94864708 .00000980 00000+0 12456-3 0 9998 2 33321 97.6524 163.6770 0036676 158.7497 201.5250 14.83328062959416 YAOGAN-4 1 33446U 08061A 26174.77843894 .00000736 00000+0 96595-4 0 9998 2 33446 97.9306 108.2400 0015497 53.0026 307.2604 14.83210614946644 DEIMOS-1 1 35681U 09041A 26174.96905896 .00000382 00000+0 63535-4 0 9997 2 35681 97.7414 331.9028 0002046 122.5775 237.5632 14.75243179907887 UK-DMC 2 1 35683U 09041C 26174.66587258 .00000382 00000+0 62619-4 0 9996 2 35683 97.8845 309.4744 0001118 88.0315 272.1022 14.76042820907528 DMC3-FM1 1 40715U 15032A 26174.94015317 .00000347 00000+0 45913-4 0 9997 2 40715 97.6459 39.8500 0006763 42.0553 318.1181 14.85745501590912 DMC3-FM2 1 40716U 15032B 26174.89483325 -.00000114 00000+0 -72008-5 0 9990 2 40716 97.6512 41.3845 0007266 45.8469 314.3343 14.85748300590906 DMC3-FM3 1 40717U 15032C 26174.91820764 .00000441 00000+0 56670-4 0 9993 2 40717 97.6563 43.1643 0006451 47.2244 312.9513 14.85738911590912